DECAYED

STARLINK-2528, 48307 (Decayed)

Orbit data source: Space-Track

STARLINK-2528, 48307 was a payload satellite owned by SpaceX/Seattle (US) in LEO that was launched on Thu, 29 Apr 2021 UTC via an FALCON 9 launch vehicle from the Air Force Eastern Test Range (AFETR). Payloads include a variety of satellites, spacecraft, and rockets equipped with specific instruments for various scientific and technological missions. These include communications satellites like Starlink; space stations such as the ISS; scientific satellites like the Hubble; Earth observation satellites from companies like Planet Labs, Umbra, and HawkEye 360; GPS; miniature CubeSats for education and research; and military/defense satellites.

Not visible in the next 10 days
STARLINK-2528 details
Identifier
48307, 2021-036AH
Orbit
Decayed
Last TLE update7 months ago
Origin
Flag of USSpaceX/Seattle (US)
ManufacturerSpaceX/Seattle
MissionDecayed Commercial Communications
Bus & MotorSTARLINK, Unknown motor
Mass260 kg wet, ~248 kg dry
Launch date (UTC)
2021-04-29 (4 years ago)
Launch vehicle
FALCON 9
Launch site
Air Force Eastern Test Range (AFETR)
Object type
Payload
Rocket body
Debris
Shape & HBRBox + 1 Pan, 8.86 m
Radar Cross Section13.562 m², Large (>1 m²)

Expand to show TLE details & history

TLE from 7 months ago
0 STARLINK-2528
1 48307U 21036AH  24203.63775640  .08817526  12369-4  67261-3 0  9990
2 48307  53.0318 220.5882 0001956 301.0519 162.2655 16.39650971179293
Epoch: 2024-07-21T15:18Z
Definitive object data (Epoch: 2024-07-21T15:18:22.152Z)
Latitude51.18572°
Longitude162.63352°
Altitude173.978 km
Speed7.808 km/s
True Right ascension22h 08m 25s
True Declination51° 00' 09"
Sunlit
Object was in full shadow at TLE epoch
Visualization observer readout
Observer readout values are unavailable because the object's trajectory could not be propagated. This is usually caused when the trajectory data is faulty or the object's orbit has decayed.
Visualization observer readout
Observer readout values are unavailable because the object's trajectory could not be propagated. This is usually caused when the trajectory data is faulty or the object's orbit has decayed.
Orbital elements
Apogee altitude168.301 km
Perigee altitude165.741 km
Semi-major axis6,545.158 km
Eccentricity0.0001956
Inclination53.0318°
RAAN220.5882°
Arg. of periapsis301.0519°
True anomaly162.27233°
Mean anomaly162.2655°
Eccentric anomaly162.26891°
Mean motion4.09886 °/min
BSTAR0.00067261
Orbital period87.83 mins
Loading maneuver chart data...
Loading historical data...
Loading historical data...
Loading historical data...
Loading historical data...
Loading historical data...
Loading historical data...
Loading historical data...

STARLINK-2528 Visibility forecast

Observer location: undefined°, undefined

This satellite is decayed
Span
Click to sort rows by Start time (UTC) header in descending order
Start Az.
Max El. time (UTC)
Max El. Az.
Max El.
End time (UTC)
End Az.
|